Flora, IL

4:04 AM CDT on April 21, 2018 (GMT -0500)
Flora Municipal

Weather History for KFOA - March, 2013

Change the Weather History Date:

Saturday, March 9, 2013

  Actual Average (KSLO) Record (KSLO)
Temperature  
Mean Temperature 46 °F -  
Max Temperature 56 °F 54 °F 79 °F (1974)
Min Temperature 37 °F 31 °F 12 °F (1984)
Degree Days  
Heating Degree Days 18    
Moisture  
Dew Point 34 °F    
Average Humidity 62    
Maximum Humidity 81    
Minimum Humidity 46    
Precipitation  
Precipitation 0.00 in - - ()
Sea Level Pressure  
Sea Level Pressure 30.09 in    
Wind  
Wind Speed 10 mph (SE)    
Max Wind Speed 18 mph    
Max Gust Speed 24 mph    
Visibility 10 miles    
Events      
Averages and records for this station are not official NWS values.
T = Trace of Precipitation, MM = Missing Value Source: NWS Daily Summary

Daily Weather History Graph

Daily Weather History Graph

Search for Another Location

Airport or City:

Astronomy

Mar. 09, 2013 Rise Set
Actual Time 6:13 AM CST 5:55 PM CST
Civil Twilight 5:47 AM CST 6:21 PM CST
Nautical Twilight 5:16 AM CST 6:52 PM CST
Astronomical Twilight 4:45 AM CST 7:23 PM CST
Moon 4:36 AM CST (3/9) 3:57 PM CST (3/9)
Length of Visible Light 12h 34m
Length of Day
11h 41m
Waning Crescent, 5% of the Moon is Illuminated
Mar 9
Waning Crescent
Mar 11
New
Mar 19
First Quarter
Mar 27
Full
Apr 2
Last Quarter

Hourly Weather History & Observations

Time (CST) Temp. Windchill Dew Point Humidity Pressure Visibility Wind Dir Wind Speed Gust Speed Precip Events Conditions
12:15 AM 40.5 °F 34.1 °F 31.6 °F 71% 30.27 in 10.0 mi ESE 10.4 mph - N/A   Clear
12:35 AM 40.5 °F 34.1 °F 31.1 °F 69% 30.24 in 10.0 mi ESE 10.4 mph - N/A   Clear
12:55 AM 39.7 °F 34.3 °F 30.9 °F 71% 30.26 in 10.0 mi SE 8.1 mph - N/A   Clear
1:15 AM 38.8 °F 33.2 °F 31.5 °F 75% 30.26 in 10.0 mi SE 8.1 mph - N/A   Clear
1:35 AM 39.2 °F 35.0 °F 32.0 °F 75% 30.25 in 10.0 mi SE 5.8 mph - N/A   Clear
1:55 AM 39.2 °F 33.0 °F 31.1 °F 73% 30.24 in 10.0 mi SE 9.2 mph - N/A   Clear
2:31 AM 39.2 °F 33.6 °F 30.2 °F 70% 30.23 in 10.0 mi SE 8.1 mph - N/A   Clear
2:35 AM 39.0 °F 32.8 °F 31.6 °F 75% 30.22 in 10.0 mi SE 9.2 mph - N/A   Clear
2:55 AM 38.8 °F 34.6 °F 31.3 °F 74% 30.23 in 10.0 mi SE 5.8 mph - N/A   Clear
3:15 AM 38.5 °F 32.7 °F 31.3 °F 75% 30.22 in 10.0 mi SE 8.1 mph - N/A   Clear
3:35 AM 37.9 °F 30.9 °F 31.1 °F 76% 30.21 in 10.0 mi ESE 10.4 mph - N/A   Clear
3:55 AM 37.9 °F 32.7 °F 31.1 °F 76% 30.22 in 10.0 mi SE 6.9 mph - N/A   Clear
4:15 AM 37.2 °F 31.9 °F 31.1 °F 79% 30.23 in 10.0 mi SE 6.9 mph - N/A   Clear
4:35 AM 37.0 °F 31.0 °F 31.1 °F 79% 30.22 in 10.0 mi ESE 8.1 mph - N/A   Clear
4:55 AM 37.2 °F 31.2 °F 31.5 °F 80% 30.22 in 10.0 mi ESE 8.1 mph - N/A   Clear
5:15 AM 37.0 °F 31.6 °F 31.1 °F 79% 30.23 in 10.0 mi SE 6.9 mph - N/A   Scattered Clouds
5:35 AM 37.0 °F 29.8 °F 31.1 °F 79% 30.19 in 10.0 mi East 10.4 mph - N/A   Clear
5:55 AM 37.4 °F 32.8 °F 31.1 °F 78% 30.22 in 10.0 mi SSE 5.8 mph - N/A   Clear
6:15 AM 37.0 °F 29.8 °F 31.6 °F 81% 30.20 in 10.0 mi ESE 10.4 mph - N/A   Clear
6:35 AM 37.8 °F 30.2 °F 31.5 °F 78% 30.19 in 10.0 mi ESE 11.5 mph - N/A   Clear
6:55 AM 38.3 °F 31.9 °F 31.6 °F 77% 30.21 in 10.0 mi SE 9.2 mph - N/A   Clear
7:15 AM 38.8 °F 33.8 °F 32.0 °F 76% 30.22 in 10.0 mi SE 6.9 mph - N/A   Clear
7:35 AM 39.6 °F 34.0 °F 32.2 °F 75% 30.22 in 10.0 mi SE 8.1 mph - N/A   Clear
7:55 AM 40.3 °F 33.4 °F 32.0 °F 72% 30.21 in 10.0 mi SE 11.5 mph - N/A   Clear
8:15 AM 41.0 °F 35.8 °F 32.4 °F 71% 30.21 in 10.0 mi SE 8.1 mph - N/A   Clear
8:35 AM 42.3 °F 36.3 °F 32.4 °F 68% 30.21 in 10.0 mi SE 10.4 mph - N/A   Clear
8:55 AM 43.3 °F 38.1 °F 32.7 °F 66% 30.21 in 10.0 mi SE 9.2 mph - N/A   Clear
9:15 AM 44.4 °F 39.5 °F 33.1 °F 64% 30.18 in 10.0 mi ESE 9.2 mph - N/A   Clear
9:35 AM 44.2 °F 39.2 °F 33.6 °F 66% 30.18 in 10.0 mi ESE 9.2 mph - N/A   Clear
9:55 AM 44.6 °F 40.2 °F 34.2 °F 67% 30.18 in 10.0 mi SE 8.1 mph - N/A   Mostly Cloudy
10:15 AM 46.6 °F - 34.3 °F 62% 30.18 in 10.0 mi SSE 10.4 mph - N/A   Overcast
10:35 AM 46.9 °F - 34.7 °F 62% 30.17 in 10.0 mi SE 11.5 mph - N/A   Overcast
10:55 AM 47.5 °F - 34.3 °F 60% 30.17 in 10.0 mi SSE 6.9 mph - N/A   Overcast
11:15 AM 47.5 °F - 35.6 °F 63% 30.14 in 10.0 mi ESE 6.9 mph - N/A   Overcast
11:35 AM 48.7 °F - 35.1 °F 59% 30.13 in 10.0 mi ESE 8.1 mph - N/A   Overcast
11:55 AM 49.8 °F - 35.4 °F 58% 30.12 in 10.0 mi SE 11.5 mph - N/A   Scattered Clouds
12:15 PM 50.5 °F - 36.7 °F 59% 30.11 in 10.0 mi SE 9.2 mph - N/A   Scattered Clouds
12:35 PM 52.7 °F - 36.5 °F 54% 30.10 in 10.0 mi SE 10.4 mph - N/A   Scattered Clouds
12:55 PM 52.9 °F - 36.1 °F 53% 30.09 in 10.0 mi SE 11.5 mph - N/A   Clear
1:15 PM 53.4 °F - 37.0 °F 54% 30.07 in 10.0 mi SE 10.4 mph - N/A   Clear
1:35 PM 55.9 °F - 36.9 °F 49% 30.05 in 10.0 mi SE 11.5 mph - N/A   Clear
1:55 PM 55.0 °F - 35.4 °F 48% 30.04 in 10.0 mi SSE 13.8 mph 18.4 mph N/A   Clear
2:15 PM 56.1 °F - 36.0 °F 47% 30.03 in 10.0 mi SSE 16.1 mph 19.6 mph N/A   Clear
2:35 PM 54.9 °F - 36.7 °F 50% 30.02 in 10.0 mi SE 11.5 mph - N/A   Clear
2:55 PM 55.0 °F - 36.7 °F 50% 30.01 in 10.0 mi SE 12.7 mph - N/A   Clear
3:15 PM 56.5 °F - 38.5 °F 51% 30.00 in 10.0 mi SE 11.5 mph - N/A   Clear
3:35 PM 56.3 °F - 37.2 °F 49% 29.99 in 10.0 mi SE 13.8 mph - N/A   Clear
3:55 PM 56.3 °F - 36.0 °F 46% 29.99 in 10.0 mi SE 16.1 mph - N/A   Clear
4:15 PM 55.2 °F - 38.3 °F 53% 29.99 in 10.0 mi SE 10.4 mph - N/A   Clear
4:35 PM 56.5 °F - 38.8 °F 52% 29.98 in 10.0 mi SSE 12.7 mph - N/A   Clear
4:55 PM 56.1 °F - 37.2 °F 49% 29.97 in 10.0 mi SSE 12.7 mph - N/A   Clear
5:15 PM 55.8 °F - 36.0 °F 47% 29.96 in 10.0 mi SSE 18.4 mph 24.2 mph N/A   Clear
5:35 PM 55.0 °F - 35.8 °F 48% 29.96 in 10.0 mi SE 17.3 mph 23.0 mph N/A   Clear
5:55 PM 54.0 °F - 36.7 °F 52% 29.96 in 10.0 mi SE 15.0 mph - N/A   Clear
6:15 PM 52.9 °F - 36.1 °F 53% 29.96 in 10.0 mi SE 16.1 mph - N/A   Clear
6:35 PM 52.0 °F - 36.5 °F 56% 29.96 in 10.0 mi SE 16.1 mph - N/A   Clear
6:55 PM 52.0 °F - 36.7 °F 56% 29.95 in 10.0 mi SE 15.0 mph - N/A   Clear
7:15 PM 51.6 °F - 36.7 °F 57% 29.94 in 10.0 mi SSE 15.0 mph - N/A   Clear
7:35 PM 51.8 °F - 36.5 °F 56% 29.94 in 10.0 mi SE 16.1 mph - N/A   Clear
7:55 PM 51.8 °F - 36.0 °F 55% 29.93 in 10.0 mi SSE 16.1 mph - N/A   Clear
8:15 PM 51.6 °F - 36.0 °F 55% 29.92 in 10.0 mi SSE 17.3 mph - N/A   Clear
8:35 PM 51.6 °F - 35.8 °F 55% 29.92 in 10.0 mi SSE 15.0 mph - N/A   Clear
8:55 PM 51.8 °F - 35.6 °F 54% 29.93 in 10.0 mi SSE 13.8 mph - N/A   Clear
9:15 PM 51.4 °F - 35.4 °F 54% 29.92 in 10.0 mi SSE 13.8 mph - N/A   Clear
9:35 PM 52.0 °F - 35.2 °F 53% 29.92 in 10.0 mi SSE 13.8 mph - N/A   Clear
9:55 PM 52.9 °F - 35.4 °F 52% 29.92 in 10.0 mi SSE 12.7 mph 19.6 mph N/A   Mostly Cloudy
10:15 PM 52.9 °F - 35.6 °F 52% 29.92 in 10.0 mi SSE 13.8 mph - N/A   Scattered Clouds
10:35 PM 52.0 °F - 36.1 °F 55% 29.91 in 10.0 mi SSE 12.7 mph - N/A   Clear
10:55 PM 52.9 °F - 36.0 °F 53% 29.91 in 10.0 mi South 13.8 mph - N/A   Scattered Clouds
11:15 PM 52.9 °F - 36.1 °F 53% 29.90 in 10.0 mi South 12.7 mph - N/A   Scattered Clouds
11:35 PM 52.9 °F - 36.1 °F 53% 29.90 in 10.0 mi South 12.7 mph - N/A   Scattered Clouds
11:55 PM 53.2 °F - 36.1 °F 52% 29.90 in 10.0 mi South 12.7 mph - N/A   Overcast